CHINASAT 2D (ZX 2D) (43920 NORAD) Tracking and Keplerian Element Data

This shows tracking and keplerian element data for the satellite.

Feedback or suggestion? Click here.




ElementValue
Catalog43920
NameCHINASAT 2D (ZX 2D)
Epoch Orbit198
Epoch Day194.51611964
Epoch Year2019
RAAN106.0438
Inclination0.0453
Eccentricity0.000174
Argument of Perigee329.1383
Mean Anonmoly171.7156
Mean Motion1.00269912
Decay Rate-3.49E-06
L11 43920U 19001A 19194.51611964 -.00000349 00000-0 00000+0 0 9992
L22 43920 0.0453 106.0438 0001740 329.1383 171.7156 1.00269912 1981

Live tracking and technical data element details for CHINASAT 2D (ZX 2D) (NORAD 43920). CHINASAT 2D (ZX 2D) can be tracked NOW for your location showing map with azimuth and elevation plus other details from your city location.

Track the satellite on the map from your city or location and see movement details for azimuth, elevation, latitude, longitude, range, height, and movement on the map or in text.







IsCatalogInMostPopularTable: catalog: 43920, numindb: 127
Update: records affected: 1



GetName: 43920 CHINASAT 2D (ZX 2D)

Hit Count: updated at: Wed, 17 Jul 2019 08:16:30 GMT